User: anonymous   Login
Location: Newark
(13.6797°N, 8.5297°E)
Time: 20:20:32
(UTC+00:00)
Language:

Transit 2A Rocket - Orbit

View from above orbital plane
View from above orbital plane
View from above satellite
View from above satellite

Ground track
Ground track

The orbit data is extracted from the following two-line orbital elements,

1    47U 60007C   20022.53189936 -.00000055 +00000-0 +12683-4 0  9999
2    47 066.6645 187.8624 0222193 049.4854 312.5372 14.42069319113495
Epoch (UTC): 22 January 2020 12:45:56
Eccentricity: 0.0222193
inclination: 66.6645°
perigee height: 593 km
apogee height: 910 km
right ascension of ascending node: 187.8624°
argument of perigee: 49.4854°
revolutions per day: 14.42069319
mean anomaly at epoch: 312.5372°
orbit number at epoch: 11349

The dashed part of the orbit path shows where the satellite is in the earth's shadow,  

DLR